This demonstration page uses our WeatherBlox Daily Observations layout. Learn more.

40.92945, -100.16068

Hourly Observations for April 9, 2018

Temp ( °F °C ) Dew Point ( °F °C ) Humidity (%) Winds ( mph kmh ) Pressure ( in mb ) Visibility ( mi km ) Precip ( " mm )
12:15 am 00:15 Cloudy 37 2.5 27 -3 67 67 N 13 20 30 1016 10 16.0934 0 0
12:35 am 00:35 Cloudy 36 2.2 26 -3.4 67 67 N 13 20 30.03 1017 10 16.0934 0 0
12:55 am 00:55 Cloudy 36 2 26 -3.5 67 67 N 8 13 30.03 1017 10 16.0934 0 0
1:15 am 01:15 Cloudy 35 1.8 26 -3.1 70 70 N 5 7 30.03 1017 10 16.0934 0 0
1:35 am 01:35 Cloudy 35 1.8 26 -3.3 69 69 N 8 13 30.06 1018 10 16.0934 0 0
1:55 am 01:55 Cloudy 35 1.8 26 -3.2 70 70 NNW 9 15 30.09 1019 10 16.0934 0 0
2:15 am 02:15 Cloudy 35 1.7 26 -3.2 70 70 NNW 8 13 30.09 1019 10 16.0934 0 0
2:35 am 02:35 Cloudy 35 1.6 27 -3 72 72 NW 3 6 30.09 1019 10 16.0934 0 0
2:55 am 02:55 Partly Cloudy 35 1.5 27 -3 72 72 WSW 3 6 30.09 1019 10 16.0934 0 0
3:15 am 03:15 Mostly Cloudy 35 1.7 27 -2.7 73 73 Calm 30.12 1020 10 16.0934 0 0
3:35 am 03:35 Cloudy 35 1.8 28 -2.5 73 73 Calm 30.12 1020 10 16.0934 0 0
3:55 am 03:55 Cloudy 35 1.8 27 -2.8 72 72 Calm 30.09 1019 10 16.0934 0 0
4:15 am 04:15 Cloudy 35 1.8 27 -2.8 72 72 Calm 30.09 1019 10 16.0934 0 0
4:35 am 04:35 Cloudy 35 1.5 28 -2.3 76 76 Calm 30.09 1019 10 16.0934 0 0
4:55 am 04:55 Cloudy 35 1.5 28 -2.2 77 77 NNW 3 6 30.09 1019 10 16.0934 0 0
5:15 am 05:15 Cloudy 34 1.1 28 -2.2 79 79 N 3 6 30.12 1020 10 16.0934 0 0
5:35 am 05:35 Cloudy 35 1.5 28 -2 78 78 NE 3 6 30.12 1020 10 16.0934 0 0
5:55 am 05:55 Cloudy 35 1.5 28 -2.2 77 77 NNE 6 9 30.12 1020 10 16.0934 0 0
6:15 am 06:15 Cloudy 35 1.5 28 -2.2 77 77 NNE 6 9 30.12 1020 10 16.0934 0 0
6:35 am 06:35 Cloudy 34 1.3 28 -2.5 76 76 NNE 3 6 30.12 1020 10 16.0934 0 0
6:55 am 06:55 Cloudy 34 1.3 28 -2.4 77 77 NE 6 9 30.12 1020 10 16.0934 0 0
7:15 am 07:15 Cloudy 35 1.4 28 -2.5 76 76 NE 14 22 30.12 1020 10 16.0934 0 0
7:35 am 07:35 Cloudy with Light Rain 33 0.6 28 -2.1 82 82 ENE 8 13 30.15 1021 10 16.0934 0 0
7:55 am 07:55 Cloudy 33 0.3 29 -1.8 86 86 NNE 7 11 30.18 1022 10 16.0934 0 0
8:15 am 08:15 Cloudy 33 0.5 28 -2.1 83 83 NNE 13 20 30.21 1023 10 16.0934 0 0
8:35 am 08:35 Cloudy 33 0.3 28 -2.5 82 82 NNE 16 26 30.21 1023 10 16.0934 0 0
8:55 am 08:55 Cloudy 33 0.3 28 -2.1 84 84 NNE 12 19 30.24 1024 10 16.0934 0 0
9:15 am 09:15 Cloudy 33 0.3 28 -2.2 84 84 NNE 14 22 30.24 1024 10 16.0934 0 0
9:35 am 09:35 Cloudy 33 0.5 28 -2.2 82 82 NNE 12 19 30.27 1025 10 16.0934 0 0
9:55 am 09:55 Cloudy 34 1 28 -2.1 80 80 N 14 22 30.27 1025 10 16.0934 0 0
10:15 am 10:15 Cloudy 34 1.3 28 -2.2 78 78 N 12 19 30.27 1025 10 16.0934 0 0
10:35 am 10:35 Cloudy 35 1.7 28 -2.1 76 76 N 16 26 30.3 1026 10 16.0934 0 0
10:55 am 10:55 Cloudy 37 2.9 29 -1.8 72 72 N 16 26 30.27 1025 10 16.0934 0 0
11:15 am 11:15 Cloudy 39 4 29 -1.9 66 66 N 16 26 30.27 1025 10 16.0934 0 0
11:35 am 11:35 Cloudy 38 3.1 27 -2.8 66 66 N 18 30 30.3 1026 10 16.0934 0 0
11:55 am 11:55 Cloudy 39 3.8 27 -2.8 62 62 N 21 33 30.3 1026 10 16.0934 0 0
12:15 pm 12:15 Cloudy 38 3.1 26 -3.1 64 64 N 16 26 30.3 1026 10 16.0934 0 0
12:35 pm 12:35 Cloudy 38 3.4 26 -3.2 62 62 NNW 17 28 30.33 1027 10 16.0934 0 0
12:55 pm 12:55 Cloudy 38 3.3 26 -3.3 62 62 N 17 28 30.33 1027 10 16.0934 0 0
1:15 pm 13:15 Cloudy 39 3.7 26 -3.6 59 59 N 15 24 30.33 1027 10 16.0934 0 0
1:35 pm 13:35 Cloudy 38 3.5 25 -3.8 59 59 N 15 24 30.33 1027 10 16.0934 0 0
1:55 pm 13:55 Cloudy 39 4 26 -3.6 58 58 N 15 24 30.33 1027 10 16.0934 0 0
2:15 pm 14:15 Cloudy 40 4.3 25 -3.7 56 56 NNW 15 24 30.33 1027 10 16.0934 0 0
2:35 pm 14:35 Cloudy 40 4.7 25 -3.7 55 55 N 15 24 30.33 1027 10 16.0934 0 0
2:55 pm 14:55 Mostly Cloudy 42 5.6 26 -3.6 52 52 N 12 19 30.33 1027 10 16.0934 0 0
3:15 pm 15:15 Mostly Cloudy 42 5.4 26 -3.5 53 53 N 8 13 30.33 1027 10 16.0934 0 0
3:35 pm 15:35 Partly Cloudy 43 6 26 -3.4 51 51 N 12 19 30.27 1025 10 16.0934 0 0
3:55 pm 15:55 Partly Cloudy 44 6.9 26 -3.4 48 48 N 13 20 30.3 1026 10 16.0934 0 0
4:15 pm 16:15 Sunny 44 6.9 26 -3.1 49 49 N 7 11 30.27 1025 10 16.0934 0 0
4:35 pm 16:35 Sunny 46 7.9 26 -3.1 46 46 NNW 10 17 30.27 1025 10 16.0934 0 0
4:55 pm 16:55 Sunny 45 7.2 26 -3.2 48 48 NE 6 9 30.27 1025 10 16.0934 0 0
5:15 pm 17:15 Sunny 46 7.5 26 -3.3 47 47 NNE 9 15 30.27 1025 10 16.0934 0 0
5:35 pm 17:35 Sunny 46 7.6 26 -3.4 46 46 NE 5 7 30.27 1025 10 16.0934 0 0
5:55 pm 17:55 Sunny 46 7.6 27 -2.8 48 48 ENE 10 17 30.27 1025 10 16.0934 0 0
6:15 pm 18:15 Sunny 45 7.3 27 -2.9 49 49 E 8 13 30.27 1025 10 16.0934 0 0
6:35 pm 18:35 Sunny 45 7.1 26 -3.1 49 49 E 7 11 30.27 1025 10 16.0934 0 0
6:55 pm 18:55 Sunny 45 7 27 -3 49 49 ESE 6 9 30.27 1025 10 16.0934 0 0
7:15 pm 19:15 Sunny 45 7 27 -2.9 50 50 ESE 8 13 30.27 1025 10 16.0934 0 0
7:35 pm 19:35 Sunny 43 6 26 -3.2 52 52 E 9 15 30.27 1025 10 16.0934 0 0
7:55 pm 19:55 Sunny 41 5.2 26 -3.3 55 55 ESE 9 15 30.3 1026 10 16.0934 0 0
8:15 pm 20:15 Clear 39 4.1 26 -3.5 58 58 ESE 10 17 30.3 1026 10 16.0934 0 0
8:35 pm 20:35 Clear 38 3.3 26 -3.5 61 61 ESE 9 15 30.33 1027 10 16.0934 0 0
8:55 pm 20:55 Clear 37 2.7 26 -3.6 64 64 ESE 8 13 30.36 1028 10 16.0934 0 0
9:15 pm 21:15 Clear 36 2.2 26 -3.6 66 66 ESE 10 17 30.36 1028 10 16.0934 0 0
9:35 pm 21:35 Clear 35 1.8 26 -3.5 68 68 SE 8 13 30.36 1028 10 16.0934 0 0
9:55 pm 21:55 Clear 35 1.5 26 -3.6 69 69 SSE 8 13 30.36 1028 10 16.0934 0 0
10:15 pm 22:15 Clear 34 1 25 -3.8 71 71 ESE 7 11 30.36 1028 10 16.0934 0 0
10:35 pm 22:35 Clear 33 0.6 25 -4 72 72 SE 8 13 30.39 1029 10 16.0934 0 0
10:55 pm 22:55 Clear 33 0.3 24 -4.2 72 72 SE 8 13 30.39 1029 10 16.0934 0 0
11:15 pm 23:15 Clear 32 0 24 -4.3 73 73 SE 6 9 30.42 1030 10 16.0934 0 0
11:35 pm 23:35 Clear 30 -1 24 -4.6 77 77 SSE 6 9 30.42 1030 10 16.0934 0 0
11:55 pm 23:55 Clear 29 -1.6 23 -5 78 78 SSE 6 9 30.42 1030 10 16.0934 0 0

Powered by AerisWeather